| time (UTC) | temp F | wind direction | speed MPH | gust MPH | rain 1hr in | rain 24hr in | rain mn in | humidity % | barometer mb |
| 20260902174504 | 65 | 130 | 6.0 | 14.0 | 0.00 | 0.00 | 0.00 | 71 | 1004.6 |
| 20260902173010 | 66 | 163 | 5.0 | 19.0 | 0.00 | 0.00 | 0.00 | 72 | 1004.5 |
| 20260902171501 | 66 | 117 | 7.0 | 17.0 | 0.00 | 0.00 | 0.00 | 72 | 1004.4 |
| 20260902170100 | 66 | 49 | 8.0 | 16.0 | 0.00 | 0.00 | 0.00 | 72 | 1004.5 |
| 20260902164600 | 65 | 118 | 8.0 | 19.0 | 0.00 | 0.00 | 0.00 | 74 | 1005.0 |
| 20260902163054 | 64 | 50 | 6.0 | 12.0 | 0.00 | 0.00 | 0.00 | 76 | 1005.2 |
| 20260902161559 | 64 | 188 | 2.0 | 10.0 | 0.00 | 0.00 | 0.00 | 79 | 1005.5 |
| 20260902160054 | 63 | 100 | 5.0 | 15.0 | 0.00 | 0.00 | 0.00 | 80 | 1005.6 |
| 20260902154545 | 61 | 155 | 7.0 | 14.0 | 0.00 | 0.00 | 0.00 | 83 | 1005.4 |
| 20260902153045 | 61 | 124 | 7.0 | 19.0 | 0.00 | 0.00 | 0.00 | 82 | 1005.3 |
| 20260902151543 | 61 | 150 | 6.0 | 17.0 | 0.00 | 0.00 | 0.00 | 84 | 1005.3 |
| 20260902150043 | 62 | 248 | 7.0 | 19.0 | 0.00 | 0.00 | 0.00 | 83 | 1005.4 |
| 20260902144542 | 61 | 124 | 5.0 | 16.0 | 0.00 | 0.00 | 0.00 | 84 | 1005.4 |
| 20260902143040 | 60 | 113 | 5.0 | 15.0 | 0.00 | 0.00 | 0.00 | 85 | 1005.5 |
| 20260902141540 | 60 | 95 | 6.0 | 20.0 | 0.00 | 0.00 | 0.00 | 86 | 1005.4 |
| 20260902140040 | 60 | 119 | 6.0 | 18.0 | 0.00 | 0.00 | 0.00 | 86 | 1005.5 |
| 20260902134535 | 59 | 127 | 5.0 | 16.0 | 0.00 | 0.00 | 0.00 | 87 | 1005.5 |
| 20260902133034 | 59 | 146 | 6.0 | 13.0 | 0.00 | 0.00 | 0.00 | 88 | 1005.6 |
| 20260902131536 | 60 | 246 | 4.0 | 15.0 | 0.00 | 0.00 | 0.00 | 87 | 1005.7 |
| 20260902130030 | 60 | 158 | 4.0 | 16.0 | 0.00 | 0.00 | 0.00 | 86 | 1005.8 |
| 20260902124533 | 60 | 134 | 3.0 | 10.0 | 0.00 | 0.00 | 0.00 | 86 | 1006.0 |
| 20260902123029 | 60 | 117 | 3.0 | 19.0 | 0.00 | 0.00 | 0.00 | 87 | 1005.8 |
| 20260902121526 | 60 | 143 | 7.0 | 15.0 | 0.00 | 0.00 | 0.00 | 86 | 1005.8 |
| 20260902120027 | 60 | 191 | 3.0 | 10.0 | 0.00 | 0.00 | 0.00 | 86 | 1006.2 |
| 20260902114540 | 60 | 62 | 4.0 | 12.0 | 0.00 | 0.00 | 0.00 | 86 | 1006.6 |
| 20260902113019 | 60 | 179 | 1.0 | 8.0 | 0.00 | 0.00 | 0.00 | 86 | 1006.8 |
| 20260902111519 | 60 | 60 | 3.0 | 14.0 | 0.00 | 0.00 | 0.00 | 86 | 1006.9 |
| 20260902110025 | 60 | 123 | 3.0 | 8.0 | 0.00 | 0.00 | 0.00 | 85 | 1007.1 |
| 20260902104513 | 60 | 101 | 3.0 | 9.0 | 0.00 | 0.00 | 0.00 | 84 | 1007.4 |
| 20260902103020 | 60 | 117 | 1.0 | 5.0 | 0.00 | 0.00 | 0.00 | 84 | 1007.5 |
| 20260902101509 | 59 | 129 | 1.0 | 5.0 | 0.00 | 0.00 | 0.00 | 84 | 1007.6 |
| 20260902100011 | 60 | 112 | 2.0 | 4.0 | 0.00 | 0.00 | 0.00 | 84 | 1007.6 |
| 20260902094507 | 60 | 166 | 2.0 | 8.0 | 0.00 | 0.00 | 0.00 | 83 | 1007.8 |
| 20260902093007 | 60 | 174 | 4.0 | 10.0 | 0.00 | 0.00 | 0.00 | 84 | 1007.8 |
| 20260902091503 | 60 | 110 | 4.0 | 11.0 | 0.00 | 0.00 | 0.00 | 85 | 1007.8 |
| 20260902090002 | 60 | 104 | 3.0 | 7.0 | 0.00 | 0.00 | 0.00 | 86 | 1008.1 |
| 20260902084601 | 60 | 139 | 2.0 | 8.0 | 0.00 | 0.00 | 0.00 | 86 | 1008.0 |
| 20260902083057 | 61 | 126 | 1.0 | 4.0 | 0.00 | 0.00 | 0.00 | 86 | 1008.3 |
| 20260902081557 | 61 | 124 | 3.0 | 7.0 | 0.00 | 0.00 | 0.00 | 87 | 1008.2 |
| 20260902080056 | 61 | 92 | 3.0 | 11.0 | 0.00 | 0.00 | 0.00 | 87 | 1008.3 |
| 20260902074609 | 61 | 94 | 2.0 | 9.0 | 0.00 | 0.00 | 0.00 | 86 | 1008.4 |
| 20260902073051 | 61 | 117 | 3.0 | 8.0 | 0.00 | 0.00 | 0.00 | 86 | 1008.5 |
| 20260902071550 | 61 | 92 | 2.0 | 7.0 | 0.00 | 0.00 | 0.00 | 85 | 1008.5 |
| 20260902070049 | 61 | 136 | 0.0 | 6.0 | 0.00 | 0.00 | 0.00 | 85 | 1008.6 |
| 20260902064547 | 62 | 122 | 2.0 | 8.0 | 0.00 | 0.00 | 0.00 | 84 | 1008.6 |
| 20260902063046 | 62 | 198 | 2.0 | 6.0 | 0.00 | 0.00 | 0.00 | 84 | 1008.7 |
| 20260902061550 | 62 | 115 | 0.0 | 4.0 | 0.00 | 0.00 | 0.00 | 84 | 1008.8 |
| 20260902060056 | 62 | 160 | 1.0 | 5.0 | 0.00 | 0.00 | 0.00 | 84 | 1008.9 |
| 20260902054545 | 63 | 174 | 0.0 | 6.0 | 0.00 | 0.00 | 0.00 | 83 | 1009.0 |
| 20260902053058 | 63 | 174 | 0.0 | 6.0 | 0.00 | 0.00 | 0.00 | 83 | 1009.0 |
| 20260902051545 | 63 | 192 | 1.0 | 6.0 | 0.00 | 0.00 | 0.00 | 84 | 1009.1 |
| 20260902050046 | 62 | 135 | 1.0 | 4.0 | 0.00 | 0.00 | 0.00 | 84 | 1009.1 |
| 20260902044546 | 62 | 165 | 1.0 | 4.0 | 0.00 | 0.00 | 0.00 | 85 | 1009.2 |
| 20260902043043 | 62 | 117 | 1.0 | 5.0 | 0.00 | 0.00 | 0.00 | 84 | 1009.3 |
| 20260902041542 | 63 | 117 | 0.0 | 1.0 | 0.00 | 0.00 | 0.00 | 83 | 1009.3 |
| 20260902040042 | 62 | 143 | 0.0 | 1.0 | 0.00 | 0.00 | 0.00 | 83 | 1009.2 |
| 20260902034555 | 62 | 118 | 1.0 | 4.0 | 0.00 | 0.00 | 0.00 | 83 | 1009.2 |
| 20260902033046 | 61 | 251 | 0.0 | 0.0 | 0.00 | 0.00 | 0.00 | 82 | 1009.2 |
| 20260902031540 | 61 | 251 | 0.0 | 0.0 | 0.00 | 0.00 | 0.00 | 82 | 1009.2 |
| 20260902030039 | 61 | 196 | 0.0 | 1.0 | 0.00 | 0.00 | 0.00 | 82 | 1009.1 |
| 20260902024539 | 61 | 154 | 0.0 | 3.0 | 0.00 | 0.00 | 0.00 | 82 | 1009.1 |
| 20260902023043 | 61 | 221 | 0.0 | 4.0 | 0.00 | 0.00 | 0.00 | 82 | 1009.2 |
| 20260902021538 | 61 | 179 | 1.0 | 5.0 | 0.00 | 0.00 | 0.00 | 81 | 1009.2 |
| 20260902020041 | 62 | 236 | 0.0 | 3.0 | 0.00 | 0.00 | 0.00 | 80 | 1009.1 |
| 20260902014539 | 62 | 240 | 0.0 | 4.0 | 0.00 | 0.00 | 0.00 | 80 | 1009.3 |
| 20260902013040 | 62 | 153 | 0.0 | 4.0 | 0.00 | 0.00 | 0.00 | 80 | 1009.3 |
| 20260902011536 | 63 | 118 | 0.0 | 2.0 | 0.00 | 0.00 | 0.00 | 79 | 1009.3 |
| 20260902010036 | 63 | 207 | 0.0 | 2.0 | 0.00 | 0.00 | 0.00 | 79 | 1009.2 |
| 20260902004535 | 63 | 136 | 0.0 | 2.0 | 0.00 | 0.00 | 0.00 | 79 | 1009.3 |
| 20260902003036 | 63 | 208 | 0.0 | 2.0 | 0.00 | 0.00 | 0.00 | 79 | 1009.3 |
| 20260902001548 | 63 | 150 | 0.0 | 2.0 | 0.00 | 0.00 | 0.00 | 81 | 1009.2 |
| 20260902000040 | 62 | 146 | 1.0 | 6.0 | 0.00 | 0.00 | 0.00 | 83 | 1009.3 |
| 20260901234533 | 62 | 219 | 0.0 | 4.0 | 0.00 | 0.00 | 0.00 | 82 | 1009.4 |
| 20260901233047 | 63 | 162 | 1.0 | 4.0 | 0.00 | 0.00 | 0.00 | 82 | 1009.4 |
| 20260901231532 | 63 | 254 | 1.0 | 6.0 | 0.00 | 0.00 | 0.00 | 82 | 1009.3 |
| 20260901230031 | 63 | 160 | 3.0 | 7.0 | 0.00 | 0.00 | 0.00 | 81 | 1009.3 |
| 20260901224531 | 64 | 92 | 2.0 | 6.0 | 0.00 | 0.00 | 0.00 | 80 | 1009.3 |
| 20260901223030 | 64 | 189 | 1.0 | 7.0 | 0.00 | 0.00 | 0.00 | 80 | 1009.3 |
| 20260901221528 | 65 | 127 | 1.0 | 7.0 | 0.00 | 0.00 | 0.00 | 81 | 1009.4 |
| 20260901220040 | 65 | 120 | 1.0 | 7.0 | 0.00 | 0.00 | 0.00 | 79 | 1009.4 |
| 20260901214528 | 66 | 152 | 1.0 | 6.0 | 0.00 | 0.00 | 0.00 | 79 | 1009.5 |
| 20260901213026 | 65 | 176 | 2.0 | 7.0 | 0.00 | 0.00 | 0.00 | 80 | 1009.7 |
| 20260901211533 | 65 | 187 | 2.0 | 6.0 | 0.00 | 0.00 | 0.00 | 79 | 1009.8 |
| 20260901210023 | 64 | 248 | 2.0 | 7.0 | 0.00 | 0.00 | 0.00 | 80 | 1009.9 |
| 20260901204524 | 64 | 130 | 2.0 | 6.0 | 0.00 | 0.00 | 0.00 | 81 | 1009.9 |
| 20260901203032 | 64 | 246 | 2.0 | 8.0 | 0.00 | 0.00 | 0.00 | 82 | 1009.9 |
| 20260901201519 | 64 | 203 | 2.0 | 8.0 | 0.00 | 0.00 | 0.00 | 81 | 1010.0 |
| 20260901200018 | 63 | 198 | 2.0 | 8.0 | 0.00 | 0.00 | 0.00 | 83 | 1009.8 |
| 20260901194517 | 62 | 136 | 2.0 | 9.0 | 0.00 | 0.00 | 0.00 | 83 | 1009.8 |
| 20260901193017 | 62 | 288 | 2.0 | 8.0 | 0.00 | 0.00 | 0.00 | 84 | 1009.9 |
| 20260901191517 | 62 | 116 | 4.0 | 9.0 | 0.00 | 0.00 | 0.00 | 85 | 1010.0 |
| 20260901190016 | 62 | 255 | 4.0 | 11.0 | 0.00 | 0.00 | 0.00 | 85 | 1010.1 |
| 20260901184515 | 63 | 222 | 2.0 | 7.0 | 0.00 | 0.00 | 0.00 | 83 | 1010.1 |
| 20260901183012 | 63 | 226 | 3.0 | 7.0 | 0.00 | 0.00 | 0.00 | 82 | 1010.0 |
| 20260901181515 | 62 | 222 | 2.0 | 8.0 | 0.00 | 0.00 | 0.00 | 83 | 1010.0 |
| 20260901180009 | 62 | 238 | 1.0 | 6.0 | 0.00 | 0.00 | 0.00 | 83 | 1010.1 |